This is the latest recevied weather packets stored in our database for station/object IZ2MHJ-3. If no packets are shown the sender has not sent any weather packets the latest 10 day(s).
| Time | Temp. | Humidity | Pressure | Rain* | Wind** | Luminosity | Snow |
|---|---|---|---|---|---|---|---|
| 1788563931 | 25.56° C | 59% | 1018.1 hPa | - | - | - | - |
| 1788562730 | 26.11° C | 58% | 1018.2 hPa | - | - | - | - |
| 1788561530 | 26.11° C | 57% | 1018.1 hPa | - | - | - | - |
| 1788560330 | 26.11° C | 56% | 1018.1 hPa | - | - | - | - |
| 1788559129 | 26.11° C | 58% | 1018.2 hPa | - | - | - | - |
| 1788557929 | 26.67° C | 56% | 1018.4 hPa | - | - | - | - |
| 1788556729 | 27.22° C | 55% | 1018.4 hPa | - | - | - | - |
| 1788555592 | 26.67° C | 53% | 1018.5 hPa | - | - | - | - |
| 1788554391 | 27.78° C | 52% | 1018.4 hPa | - | - | - | - |
| 1788553191 | 28.33° C | 51% | 1018.3 hPa | - | - | - | - |
| 1788551991 | 28.33° C | 50% | 1018.3 hPa | - | - | - | - |
| 1788550791 | 28.89° C | 50% | 1018.3 hPa | - | - | - | - |
| 1788549590 | 29.44° C | 50% | 1018.2 hPa | - | - | - | - |
| 1788548390 | 30° C | 49% | 1018.1 hPa | - | - | - | - |
| 1788547190 | 31.67° C | 47% | 1017.9 hPa | - | - | - | - |
| 1788545989 | 32.22° C | 44% | 1017.7 hPa | - | - | - | - |
| 1788544789 | 32.22° C | 41% | 1017.5 hPa | - | - | - | - |
| 1788543589 | 33.89° C | 39% | 1017.3 hPa | - | - | - | - |
| 1788542388 | 35.56° C | 35% | 1017.2 hPa | - | - | - | - |
| 1788541188 | 36.67° C | 35% | 1017.2 hPa | - | - | - | - |
| 1788539988 | 37.22° C | 34% | 1017.2 hPa | - | - | - | - |
| 1788538787 | 37.22° C | 33% | 1017.3 hPa | - | - | - | - |
| 1788537587 | 37.78° C | 32% | 1017.4 hPa | - | - | - | - |
| 1788536387 | 37.78° C | 33% | 1017.5 hPa | - | - | - | - |
| 1788535187 | 38.33° C | 32% | 1017.6 hPa | - | - | - | - |
* Rain since midnight (hover to see other rain measurements)
** Current wind speed in m/s (hover to see current wind gust speed)